START_TIME,STEP,MOV.,H8,t_acc.,H43,t_acc.,M25,t_acc.,H9,t_acc.
1979-07-27 09:00:28.770 ,0,0,0.,12.0,0.,12.0,0.,12.0,0.,12.0
1979-07-27 09:00:40.770 ,0,0,0.,12.0,0.,12.0,0.,12.0,0.,12.0
1979-07-27 09:00:52.770 ,0,0,0.,12.0,0.,12.0,0.,12.0,0.,12.0
1979-07-27 09:01:04.770 ,0,0,0.,12.0,0.,12.0,0.,12.0,0.,12.0
1979-07-27 09:01:16.770 ,0,0,0.,12.0,0.,12.0,0.,12.0,0.,12.0
1979-07-27 09:01:28.770 ,0,0,0.,12.0,0.,12.0,0.,12.0,0.,12.0
1979-07-27 09:01:40.770 ,1,0,0.,12.0,0.,12.0,0.,12.0,0.,12.0
1979-07-27 09:01:52.770 ,1,0,0.,12.0,0.,12.0,0.,12.0,0.,12.0
1979-07-27 09:02:04.770 ,1,0,0.,12.0,0.,12.0,0.,12.0,0.,12.0
1979-07-27 09:02:16.770 ,1,0,0.,12.0,0.,12.0,0.,12.0,0.,12.0
1979-07-27 09:02:28.770 ,2,0,0.,12.0,0.,12.0,0.,12.0,0.,12.0
1979-07-27 09:02:40.770 ,2,0,0.,12.0,0.,12.0,0.,12.0,0.,12.0
1979-07-27 09:02:52.770 ,2,0,0.,12.0,0.,12.0,0.,12.0,0.,12.0
1979-07-27 09:03:04.770 ,2,0,0.,12.0,0.,12.0,0.,12.0,0.,12.0
1979-07-27 09:03:16.770 ,3,0,0.,12.0,0.,12.0,0.,12.0,0.,12.0
1979-07-27 09:03:28.770 ,3,0,0.,12.0,0.,12.0,0.,12.0,0.,12.0
1979-07-27 09:03:40.770 ,3,0,0.,12.0,0.,12.0,0.,12.0,0.,12.0
1979-07-27 09:03:52.770 ,3,0,0.,12.0,0.,12.0,0.,12.0,0.,12.0
1979-07-27 09:04:04.770 ,4,0,0.,12.0,0.,12.0,0.,12.0,0.,12.0
1979-07-27 09:04:16.770 ,4,0,0.,12.0,0.,12.0,0.,12.0,0.,12.0
1979-07-27 09:04:28.770 ,4,0,0.,12.0,0.,12.0,0.,12.0,0.,12.0
1979-07-27 09:04:40.770 ,4,0,0.,12.0,0.,12.0,0.,12.0,0.,12.0
1979-07-27 09:04:52.770 ,5,0,0.,12.0,0.,12.0,0.,12.0,0.,12.0
1979-07-27 09:05:04.770 ,5,0,0.,12.0,0.,12.0,0.,12.0,0.,12.0
1979-07-27 09:05:16.770 ,5,0,0.,12.0,0.,12.0,0.,12.0,0.,12.0
1979-07-27 09:05:28.770 ,5,0,0.,12.0,0.,12.0,0.,12.0,0.,12.0
1979-07-27 09:05:40.770 ,6,0,0.,12.0,0.,12.0,0.,12.0,0.,12.0
1979-07-27 09:05:52.770 ,6,0,0.,12.0,0.,12.0,0.,12.0,0.,12.0
1979-07-27 09:06:04.770 ,6,0,0.,12.0,0.,12.0,0.,12.0,0.,12.0
1979-07-27 09:06:16.770 ,6,0,0.,12.0,0.,12.0,0.,12.0,0.,12.0
1979-07-27 09:06:28.770 ,7,0,0.,12.0,0.,12.0,0.,12.0,0.,12.0
1979-07-27 09:06:40.770 ,7,0,0.,12.0,0.,12.0,0.,12.0,0.,12.0
1979-07-27 09:06:52.770 ,7,0,,0,,0,,0,,0
1979-07-27 09:07:04.770 ,7,0,0.,12.0,0.,12.0,0.,12.0,0.,12.0
1979-07-27 09:07:16.770 ,3,1,0.,12.0,0.,12.0,0.,12.0,0.,12.0
1979-07-27 09:07:28.770 ,3,1,0.,12.0,0.,12.0,0.,12.0,0.,12.0
1979-07-27 09:07:40.770 ,0,1,0.,12.0,0.,12.0,0.,12.0,0.,12.0
1979-07-27 09:07:52.770 ,0,1,0.,12.0,0.,12.0,0.,12.0,0.,12.0
1979-07-27 09:08:04.770 ,4,1,0.,12.0,0.,12.0,0.,12.0,0.,12.0
1979-07-27 09:08:16.770 ,4,1,0.,12.0,0.,12.0,0.,12.0,0.,12.0
1979-07-27 09:08:28.770 ,7,1,0.,12.0,0.,12.0,0.,12.0,0.,12.0
1979-07-27 09:08:40.770 ,7,1,0.,12.0,0.,12.0,0.,12.0,0.,12.0
1979-07-27 09:08:52.770 ,3,1,0.,12.0,0.,12.0,0.,12.0,0.,12.0
1979-07-27 09:09:04.770 ,3,1,0.,12.0,0.,12.0,0.,12.0,0.,12.0
1979-07-27 09:09:16.770 ,0,1,0.,12.0,0.,12.0,0.,12.0,0.,12.0
1979-07-27 09:09:28.770 ,0,1,0.,12.0,0.,12.0,0.,12.0,0.,12.0
1979-07-27 09:09:40.770 ,4,1,1.,12.0,0.,12.0,0.,12.0,0.,12.0
1979-07-27 09:09:52.770 ,4,1,0.,12.0,0.,12.0,0.,12.0,0.,12.0
1979-07-27 09:10:04.770 ,7,1,0.,12.0,0.,12.0,0.,12.0,0.,12.0
1979-07-27 09:10:16.770 ,7,1,0.,12.0,0.,12.0,0.,12.0,0.,12.0
1979-07-27 09:10:28.770 ,3,1,0.,12.0,0.,12.0,0.,12.0,0.,12.0
1979-07-27 09:10:40.770 ,3,1,0.,12.0,0.,12.0,0.,12.0,0.,12.0
1979-07-27 09:10:52.770 ,0,1,0.,12.0,0.,12.0,0.,12.0,0.,12.0
1979-07-27 09:11:04.770 ,0,1,0.,12.0,0.,12.0,0.,12.0,0.,12.0
1979-07-27 09:11:16.770 ,4,1,0.,12.0,0.,12.0,0.,12.0,0.,12.0
1979-07-27 09:11:28.770 ,4,1,0.,12.0,0.,12.0,0.,12.0,0.,12.0
1979-07-27 09:11:40.770 ,7,1,0.,12.0,0.,12.0,0.,12.0,0.,12.0
1979-07-27 09:11:52.770 ,7,1,0.,12.0,0.,12.0,0.,12.0,0.,12.0
1979-07-27 09:12:04.770 ,3,1,0.,12.0,0.,12.0,0.,12.0,0.,12.0
1979-07-27 09:12:16.770 ,3,1,0.,12.0,0.,12.0,0.,12.0,0.,12.0
1979-07-27 09:12:28.770 ,0,1,0.,12.0,0.,12.0,0.,12.0,0.,12.0
1979-07-27 09:12:40.770 ,0,1,0.,12.0,0.,12.0,0.,12.0,0.,12.0
1979-07-27 09:12:52.770 ,4,1,0.,12.0,0.,12.0,0.,12.0,0.,12.0
1979-07-27 09:13:04.770 ,4,1,0.,12.0,0.,12.0,0.,12.0,0.,12.0
1979-07-27 09:13:16.770 ,7,1,0.,12.0,0.,12.0,0.,12.0,0.,12.0
1979-07-27 09:13:28.770 ,7,1,0.,12.0,0.,12.0,0.,12.0,0.,12.0
1979-07-27 09:13:40.770 ,3,1,0.,12.0,0.,12.0,0.,12.0,0.,12.0
1979-07-27 09:13:52.770 ,3,1,0.,12.0,0.,12.0,0.,12.0,0.,12.0
1979-07-27 09:14:04.770 ,0,1,0.,12.0,0.,12.0,0.,12.0,0.,12.0
1979-07-27 09:14:16.770 ,0,1,0.,12.0,0.,12.0,0.,12.0,0.,12.0
1979-07-27 09:14:28.770 ,4,1,0.,12.0,0.,12.0,0.,12.0,0.,12.0
1979-07-27 09:14:40.770 ,4,1,0.,12.0,0.,12.0,0.,12.0,0.,12.0
1979-07-27 09:14:52.770 ,7,1,0.,12.0,0.,12.0,0.,12.0,0.,12.0
1979-07-27 09:15:04.770 ,7,1,0.,12.0,0.,12.0,0.,12.0,0.,12.0
1979-07-27 09:15:16.770 ,3,1,0.,12.0,0.,12.0,0.,12.0,0.,12.0
1979-07-27 09:15:28.770 ,3,1,0.,12.0,0.,12.0,0.,12.0,0.,12.0
1979-07-27 09:15:40.770 ,0,1,0.,12.0,0.,12.0,0.,12.0,0.,12.0
1979-07-27 09:15:52.770 ,0,1,0.,12.0,0.,12.0,0.,12.0,0.,12.0
1979-07-27 09:16:04.770 ,4,1,0.,12.0,0.,12.0,0.,12.0,0.,12.0
1979-07-27 09:16:16.770 ,4,1,0.,12.0,0.,12.0,0.,12.0,0.,12.0
1979-07-27 09:16:28.770 ,7,1,0.,12.0,0.,12.0,0.,12.0,0.,12.0
1979-07-27 09:16:40.770 ,7,1,0.,12.0,0.,12.0,0.,12.0,0.,12.0
1979-07-27 09:16:52.770 ,3,1,0.,12.0,0.,12.0,0.,12.0,0.,12.0
1979-07-27 09:17:04.770 ,3,1,0.,12.0,0.,12.0,0.,12.0,0.,12.0
1979-07-27 09:17:16.770 ,0,1,0.,12.0,0.,12.0,0.,12.0,0.,12.0
1979-07-27 09:17:28.770 ,0,1,0.,12.0,0.,12.0,0.,12.0,0.,12.0
1979-07-27 09:17:40.770 ,0,0,0.,12.0,0.,12.0,0.,12.0,0.,12.0
1979-07-27 09:17:52.770 ,0,0,0.,12.0,0.,12.0,0.,12.0,0.,12.0
1979-07-27 09:18:04.770 ,0,0,0.,12.0,0.,12.0,0.,12.0,0.,12.0
1979-07-27 09:18:16.770 ,0,0,0.,12.0,0.,12.0,0.,12.0,0.,12.0
1979-07-27 09:18:28.770 ,5,0,0.,12.0,0.,12.0,0.,12.0,0.,12.0
1979-07-27 09:18:40.770 ,5,0,0.,12.0,0.,12.0,0.,12.0,0.,12.0
1979-07-27 09:18:52.770 ,5,0,0.,12.0,0.,12.0,0.,12.0,0.,12.0
1979-07-27 09:19:04.770 ,5,0,0.,12.0,0.,12.0,0.,12.0,0.,12.0
1979-07-27 09:19:16.770 ,4,0,0.,12.0,0.,12.0,0.,12.0,0.,12.0
1979-07-27 09:19:28.770 ,4,0,0.,12.0,0.,12.0,0.,12.0,0.,12.0
1979-07-27 09:19:40.770 ,4,0,0.,12.0,0.,12.0,0.,12.0,0.,12.0
1979-07-27 09:19:52.770 ,4,0,0.,12.0,0.,12.0,0.,12.0,0.,12.0
1979-07-27 09:20:04.770 ,3,0,0.,12.0,0.,12.0,0.,12.0,0.,12.0
1979-07-27 09:20:16.770 ,3,0,0.,12.0,0.,12.0,0.,12.0,0.,12.0
1979-07-27 09:20:28.770 ,3,0,0.,12.0,0.,12.0,0.,12.0,0.,12.0
1979-07-27 09:20:40.770 ,3,0,0.,12.0,0.,12.0,0.,12.0,0.,12.0
1979-07-27 09:20:52.770 ,2,0,0.,12.0,0.,12.0,0.,12.0,0.,12.0
1979-07-27 09:21:04.770 ,2,0,0.,12.0,0.,12.0,0.,12.0,0.,12.0
1979-07-27 09:21:16.770 ,2,0,0.,12.0,0.,12.0,0.,12.0,0.,12.0
1979-07-27 09:21:28.770 ,2,0,0.,12.0,0.,12.0,0.,12.0,0.,12.0
1979-07-27 09:21:40.770 ,1,0,0.,12.0,0.,12.0,0.,12.0,0.,12.0
1979-07-27 09:21:52.770 ,1,0,0.,12.0,0.,12.0,0.,12.0,0.,12.0
1979-07-27 09:22:04.770 ,1,0,0.,12.0,0.,12.0,0.,12.0,0.,12.0
1979-07-27 09:22:16.770 ,1,0,0.,12.0,0.,12.0,0.,12.0,0.,12.0
1979-07-27 09:22:28.770 ,0,0,0.,12.0,0.,12.0,0.,12.0,0.,12.0
1979-07-27 09:22:40.770 ,0,0,0.,12.0,0.,12.0,0.,12.0,0.,12.0
1979-07-27 09:22:52.770 ,0,0,0.,12.0,0.,12.0,0.,12.0,0.,12.0
1979-07-27 09:23:04.770 ,0,0,0.,12.0,0.,12.0,0.,12.0,0.,12.0
1979-07-27 09:23:16.770 ,0,0,0.,12.0,0.,12.0,0.,12.0,0.,12.0
1979-07-27 09:23:28.770 ,0,0,0.,12.0,0.,12.0,0.,12.0,0.,12.0
1979-07-27 09:23:40.770 ,0,0,0.,12.0,0.,12.0,0.,12.0,0.,12.0
1979-07-27 09:23:52.770 ,0,0,0.,12.0,0.,12.0,0.,12.0,0.,12.0
1979-07-27 09:24:04.770 ,1,0,0.,12.0,0.,12.0,0.,12.0,0.,12.0
1979-07-27 09:24:16.770 ,1,0,0.,12.0,0.,12.0,0.,12.0,0.,12.0
1979-07-27 09:24:28.770 ,1,0,0.,12.0,0.,12.0,0.,12.0,0.,12.0
1979-07-27 09:24:40.770 ,1,0,0.,12.0,0.,12.0,0.,12.0,0.,12.0
1979-07-27 09:24:52.770 ,2,0,0.,12.0,0.,12.0,0.,12.0,0.,12.0
1979-07-27 09:25:04.770 ,2,0,0.,12.0,0.,12.0,0.,12.0,0.,12.0
1979-07-27 09:25:16.770 ,2,0,0.,12.0,0.,12.0,0.,12.0,0.,12.0
1979-07-27 09:25:28.770 ,2,0,0.,12.0,0.,12.0,0.,12.0,0.,12.0
1979-07-27 09:25:40.770 ,3,0,0.,12.0,0.,12.0,0.,12.0,0.,12.0
1979-07-27 09:25:52.770 ,3,0,0.,12.0,0.,12.0,0.,12.0,0.,12.0
1979-07-27 09:26:04.770 ,3,0,0.,12.0,0.,12.0,0.,12.0,0.,12.0
1979-07-27 09:26:16.770 ,3,0,0.,12.0,0.,12.0,0.,12.0,0.,12.0
1979-07-27 09:26:28.770 ,4,0,0.,12.0,0.,12.0,0.,12.0,0.,12.0
1979-07-27 09:26:40.770 ,4,0,0.,12.0,0.,12.0,0.,12.0,0.,12.0
1979-07-27 09:26:52.770 ,4,0,0.,12.0,0.,12.0,0.,12.0,0.,12.0
1979-07-27 09:27:04.770 ,4,0,0.,12.0,0.,12.0,0.,12.0,0.,12.0
1979-07-27 09:27:16.770 ,5,0,0.,12.0,0.,12.0,0.,12.0,0.,12.0
1979-07-27 09:27:28.770 ,5,0,0.,12.0,0.,12.0,0.,12.0,0.,12.0
1979-07-27 09:27:40.770 ,5,0,0.,12.0,0.,12.0,0.,12.0,0.,12.0
1979-07-27 09:27:52.770 ,5,0,0.,12.0,0.,12.0,0.,12.0,0.,12.0
1979-07-27 09:28:04.770 ,6,0,0.,12.0,0.,12.0,0.,12.0,0.,12.0
1979-07-27 09:28:16.770 ,6,0,0.,12.0,0.,12.0,0.,12.0,0.,12.0
1979-07-27 09:28:28.770 ,6,0,0.,12.0,0.,12.0,0.,12.0,0.,12.0
1979-07-27 09:28:40.770 ,6,0,0.,12.0,0.,12.0,0.,12.0,0.,12.0
1979-07-27 09:28:52.770 ,7,0,0.,12.0,0.,12.0,0.,12.0,0.,12.0
1979-07-27 09:29:04.770 ,7,0,0.,12.0,0.,12.0,0.,12.0,0.,12.0
1979-07-27 09:29:16.770 ,7,0,0.,12.0,0.,12.0,0.,12.0,0.,12.0
1979-07-27 09:29:28.770 ,7,0,0.,12.0,0.,12.0,0.,12.0,0.,12.0
1979-07-27 09:29:40.770 ,7,0,0.,12.0,0.,12.0,0.,12.0,0.,12.0
1979-07-27 09:29:52.770 ,7,0,0.,12.0,0.,12.0,0.,12.0,0.,12.0
1979-07-27 09:30:04.770 ,7,0,0.,12.0,0.,12.0,0.,12.0,0.,12.0
1979-07-27 09:30:16.770 ,7,0,0.,12.0,0.,12.0,0.,12.0,0.,12.0
1979-07-27 09:30:28.770 ,6,0,0.,12.0,0.,12.0,0.,12.0,0.,12.0
1979-07-27 09:30:40.770 ,6,0,0.,12.0,0.,12.0,0.,12.0,0.,12.0
1979-07-27 09:30:52.770 ,6,0,0.,12.0,0.,12.0,0.,12.0,0.,12.0
1979-07-27 09:31:04.770 ,6,0,0.,12.0,0.,12.0,0.,12.0,0.,12.0
1979-07-27 09:31:16.770 ,5,0,0.,12.0,0.,12.0,0.,12.0,0.,12.0
1979-07-27 09:31:28.770 ,5,0,0.,12.0,0.,12.0,0.,12.0,0.,12.0
1979-07-27 09:31:40.770 ,5,0,0.,12.0,0.,12.0,0.,12.0,0.,12.0
1979-07-27 09:31:52.770 ,5,0,0.,12.0,0.,12.0,0.,12.0,0.,12.0
1979-07-27 09:32:04.770 ,4,0,0.,12.0,0.,12.0,0.,12.0,0.,12.0
1979-07-27 09:32:16.770 ,4,0,0.,12.0,0.,12.0,0.,12.0,0.,12.0
1979-07-27 09:32:28.770 ,4,0,0.,12.0,0.,12.0,0.,12.0,0.,12.0
1979-07-27 09:32:40.770 ,4,0,0.,12.0,0.,12.0,0.,12.0,0.,12.0
1979-07-27 09:32:52.770 ,3,0,0.,12.0,0.,12.0,0.,12.0,0.,12.0
1979-07-27 09:33:04.770 ,3,0,0.,12.0,0.,12.0,0.,12.0,0.,12.0
1979-07-27 09:33:16.770 ,3,0,0.,12.0,0.,12.0,0.,12.0,0.,12.0
1979-07-27 09:33:28.770 ,3,0,0.,12.0,0.,12.0,0.,12.0,0.,12.0
1979-07-27 09:33:40.770 ,2,0,0.,12.0,0.,12.0,0.,12.0,0.,12.0
1979-07-27 09:33:52.770 ,2,0,0.,12.0,0.,12.0,0.,12.0,0.,12.0
1979-07-27 09:34:04.770 ,2,0,0.,12.0,0.,12.0,0.,12.0,0.,12.0
1979-07-27 09:34:16.770 ,2,0,0.,12.0,0.,12.0,0.,12.0,0.,12.0
1979-07-27 09:34:28.770 ,1,0,0.,12.0,0.,12.0,0.,12.0,0.,12.0
1979-07-27 09:34:40.770 ,1,0,0.,12.0,0.,12.0,0.,12.0,0.,12.0
1979-07-27 09:34:52.770 ,1,0,0.,12.0,0.,12.0,0.,12.0,0.,12.0
1979-07-27 09:35:04.770 ,1,0,0.,12.0,0.,12.0,0.,12.0,0.,12.0
1979-07-27 09:35:16.770 ,0,0,0.,12.0,0.,12.0,0.,12.0,0.,12.0
1979-07-27 09:35:28.770 ,0,0,0.,12.0,0.,12.0,0.,12.0,0.,12.0
1979-07-27 09:35:40.770 ,0,0,0.,12.0,0.,12.0,0.,12.0,0.,12.0
1979-07-27 09:35:52.770 ,0,0,0.,12.0,0.,12.0,0.,12.0,0.,12.0
1979-07-27 09:36:04.770 ,0,0,0.,12.0,0.,12.0,0.,12.0,0.,12.0
1979-07-27 09:36:16.770 ,0,0,0.,12.0,0.,12.0,0.,12.0,0.,12.0
1979-07-27 09:36:28.770 ,0,0,0.,12.0,0.,12.0,0.,12.0,0.,12.0
1979-07-27 09:36:40.770 ,0,0,0.,12.0,0.,12.0,0.,12.0,0.,12.0
1979-07-27 09:36:52.770 ,1,0,0.,12.0,0.,12.0,0.,12.0,0.,12.0
1979-07-27 09:37:04.770 ,1,0,0.,12.0,0.,12.0,0.,12.0,0.,12.0
1979-07-27 09:37:16.770 ,1,0,0.,12.0,0.,12.0,0.,12.0,0.,12.0
1979-07-27 09:37:28.770 ,1,0,0.,12.0,0.,12.0,0.,12.0,0.,12.0
1979-07-27 09:37:40.770 ,2,0,0.,12.0,0.,12.0,0.,12.0,0.,12.0
1979-07-27 09:37:52.770 ,2,0,0.,12.0,0.,12.0,0.,12.0,0.,12.0
1979-07-27 09:38:04.770 ,2,0,0.,12.0,0.,12.0,0.,12.0,0.,12.0
1979-07-27 09:38:16.770 ,2,0,0.,12.0,0.,12.0,0.,12.0,0.,12.0
1979-07-27 09:38:28.770 ,3,0,0.,12.0,0.,12.0,0.,12.0,0.,12.0
1979-07-27 09:38:40.770 ,3,0,0.,12.0,0.,12.0,0.,12.0,0.,12.0
1979-07-27 09:38:52.770 ,3,0,0.,12.0,0.,12.0,0.,12.0,0.,12.0
1979-07-27 09:39:04.770 ,3,0,0.,12.0,0.,12.0,0.,12.0,0.,12.0
1979-07-27 09:39:16.770 ,4,0,0.,12.0,0.,12.0,0.,12.0,0.,12.0
1979-07-27 09:39:28.770 ,4,0,0.,12.0,0.,12.0,0.,12.0,0.,12.0
1979-07-27 09:39:40.770 ,4,0,0.,12.0,0.,12.0,0.,12.0,0.,12.0
1979-07-27 09:39:52.770 ,4,0,0.,12.0,0.,12.0,0.,12.0,0.,12.0
1979-07-27 09:40:04.770 ,5,0,0.,12.0,0.,12.0,0.,12.0,0.,12.0
1979-07-27 09:40:16.770 ,5,0,0.,12.0,0.,12.0,0.,12.0,0.,12.0
1979-07-27 09:40:28.770 ,5,0,0.,12.0,0.,12.0,0.,12.0,0.,12.0
1979-07-27 09:40:40.770 ,5,0,0.,12.0,0.,12.0,0.,12.0,0.,12.0
1979-07-27 09:40:52.770 ,6,0,0.,12.0,0.,12.0,0.,12.0,0.,12.0
1979-07-27 09:41:04.770 ,6,0,0.,12.0,0.,12.0,0.,12.0,0.,12.0
1979-07-27 09:41:16.770 ,6,0,0.,12.0,0.,12.0,0.,12.0,0.,12.0
1979-07-27 09:41:28.770 ,6,0,0.,12.0,0.,12.0,0.,12.0,0.,12.0
1979-07-27 09:41:40.770 ,7,0,0.,12.0,0.,12.0,0.,12.0,0.,12.0
1979-07-27 09:41:52.770 ,7,0,0.,12.0,0.,12.0,0.,12.0,0.,12.0
1979-07-27 09:42:04.770 ,7,0,0.,12.0,0.,12.0,0.,12.0,0.,12.0
1979-07-27 09:42:16.770 ,7,0,0.,12.0,0.,12.0,0.,12.0,0.,12.0
1979-07-27 09:42:28.770 ,7,0,0.,12.0,0.,12.0,0.,12.0,0.,12.0
1979-07-27 09:42:40.770 ,7,0,0.,12.0,0.,12.0,0.,12.0,0.,12.0
1979-07-27 09:42:52.770 ,7,0,0.,12.0,0.,12.0,0.,12.0,0.,12.0
1979-07-27 09:43:04.770 ,7,0,0.,12.0,0.,12.0,0.,12.0,0.,12.0
1979-07-27 09:43:16.770 ,6,0,0.,12.0,0.,12.0,0.,12.0,0.,12.0
1979-07-27 09:43:28.770 ,6,0,0.,12.0,0.,12.0,0.,12.0,0.,12.0
1979-07-27 09:43:40.770 ,6,0,0.,12.0,0.,12.0,0.,12.0,0.,12.0
1979-07-27 09:43:52.770 ,6,0,0.,12.0,0.,12.0,0.,12.0,0.,12.0
1979-07-27 09:44:04.770 ,5,0,0.,12.0,0.,12.0,0.,12.0,0.,12.0
1979-07-27 09:44:16.770 ,5,0,0.,12.0,0.,12.0,0.,12.0,0.,12.0
1979-07-27 09:44:28.770 ,5,0,0.,12.0,0.,12.0,0.,12.0,0.,12.0
1979-07-27 09:44:40.770 ,5,0,0.,12.0,0.,12.0,0.,12.0,0.,12.0
1979-07-27 09:44:52.770 ,4,0,0.,12.0,0.,12.0,0.,12.0,0.,12.0
1979-07-27 09:45:04.770 ,4,0,0.,12.0,0.,12.0,0.,12.0,0.,12.0
1979-07-27 09:45:16.770 ,4,0,0.,12.0,0.,12.0,0.,12.0,0.,12.0
1979-07-27 09:45:28.770 ,4,0,0.,12.0,0.,12.0,0.,12.0,0.,12.0
1979-07-27 09:45:40.770 ,3,0,0.,12.0,0.,12.0,0.,12.0,0.,12.0
1979-07-27 09:45:52.770 ,3,0,0.,12.0,0.,12.0,0.,12.0,0.,12.0
1979-07-27 09:46:04.770 ,3,0,0.,12.0,0.,12.0,0.,12.0,0.,12.0
1979-07-27 09:46:16.770 ,3,0,0.,12.0,0.,12.0,0.,12.0,0.,12.0
1979-07-27 09:46:28.770 ,2,0,0.,12.0,0.,12.0,0.,12.0,0.,12.0
1979-07-27 09:46:40.770 ,2,0,0.,12.0,0.,12.0,0.,12.0,0.,12.0
1979-07-27 09:46:52.770 ,2,0,0.,12.0,0.,12.0,0.,12.0,0.,12.0
1979-07-27 09:47:04.770 ,2,0,0.,12.0,0.,12.0,0.,12.0,0.,12.0
1979-07-27 09:47:16.770 ,1,0,0.,12.0,0.,12.0,0.,12.0,0.,12.0
1979-07-27 09:47:28.770 ,1,0,0.,12.0,0.,12.0,0.,12.0,0.,12.0
1979-07-27 09:47:40.770 ,1,0,0.,12.0,0.,12.0,0.,12.0,0.,12.0
1979-07-27 09:47:52.770 ,1,0,0.,12.0,0.,12.0,0.,12.0,0.,12.0
1979-07-27 09:48:04.770 ,0,0,0.,12.0,0.,12.0,0.,12.0,0.,12.0
1979-07-27 09:48:16.770 ,0,0,0.,12.0,0.,12.0,0.,12.0,0.,12.0
1979-07-27 09:48:28.770 ,0,0,0.,12.0,0.,12.0,0.,12.0,0.,12.0
1979-07-27 09:48:40.770 ,0,0,0.,12.0,0.,12.0,0.,12.0,0.,12.0
1979-07-27 09:48:52.770 ,0,0,0.,12.0,0.,12.0,0.,12.0,0.,12.0
1979-07-27 09:49:04.770 ,0,0,0.,12.0,0.,12.0,0.,12.0,0.,12.0
1979-07-27 09:49:16.770 ,0,0,0.,12.0,0.,12.0,0.,12.0,0.,12.0
1979-07-27 09:49:28.770 ,0,0,0.,12.0,0.,12.0,0.,12.0,0.,12.0
1979-07-27 09:49:40.770 ,1,0,0.,12.0,0.,12.0,0.,12.0,0.,12.0
1979-07-27 09:49:52.770 ,1,0,0.,12.0,0.,12.0,0.,12.0,0.,12.0
1979-07-27 09:50:04.770 ,1,0,0.,12.0,0.,12.0,0.,12.0,0.,12.0
1979-07-27 09:50:16.770 ,1,0,0.,12.0,0.,12.0,0.,12.0,0.,12.0
1979-07-27 09:50:28.770 ,2,0,0.,12.0,0.,12.0,0.,12.0,0.,12.0
1979-07-27 09:50:40.770 ,2,0,0.,12.0,0.,12.0,0.,12.0,0.,12.0
1979-07-27 09:50:52.770 ,2,0,0.,12.0,0.,12.0,0.,12.0,0.,12.0
1979-07-27 09:51:04.770 ,2,0,0.,12.0,0.,12.0,0.,12.0,0.,12.0
1979-07-27 09:51:16.770 ,3,0,0.,12.0,0.,12.0,0.,12.0,0.,12.0
1979-07-27 09:51:28.770 ,3,0,0.,12.0,0.,12.0,0.,12.0,0.,12.0
1979-07-27 09:51:40.770 ,3,0,0.,12.0,0.,12.0,0.,12.0,0.,12.0
1979-07-27 09:51:52.770 ,3,0,0.,12.0,0.,12.0,0.,12.0,0.,12.0
1979-07-27 09:52:04.770 ,4,0,0.,12.0,0.,12.0,0.,12.0,0.,12.0
1979-07-27 09:52:16.770 ,4,0,0.,12.0,0.,12.0,0.,12.0,0.,12.0
1979-07-27 09:52:28.770 ,4,0,0.,12.0,0.,12.0,0.,12.0,0.,12.0
1979-07-27 09:52:40.770 ,4,0,0.,12.0,0.,12.0,0.,12.0,0.,12.0
1979-07-27 09:52:52.760 ,5,0,0.,12.0,0.,12.0,0.,12.0,0.,12.0
1979-07-27 09:53:04.760 ,5,0,0.,12.0,0.,12.0,0.,12.0,0.,12.0
1979-07-27 09:53:16.760 ,5,0,0.,12.0,0.,12.0,0.,12.0,0.,12.0
1979-07-27 09:53:28.760 ,5,0,0.,12.0,0.,12.0,0.,12.0,0.,12.0
1979-07-27 09:53:40.760 ,6,0,0.,12.0,0.,12.0,0.,12.0,0.,12.0
1979-07-27 09:53:52.760 ,6,0,0.,12.0,0.,12.0,0.,12.0,0.,12.0
1979-07-27 09:54:04.760 ,6,0,0.,12.0,0.,12.0,0.,12.0,0.,12.0
1979-07-27 09:54:16.760 ,6,0,0.,12.0,0.,12.0,0.,12.0,0.,12.0
1979-07-27 09:54:28.760 ,7,0,0.,12.0,0.,12.0,0.,12.0,0.,12.0
1979-07-27 09:54:40.760 ,7,0,0.,12.0,0.,12.0,0.,12.0,0.,12.0
1979-07-27 09:54:52.760 ,7,0,0.,12.0,0.,12.0,0.,12.0,0.,12.0
1979-07-27 09:55:04.760 ,7,0,0.,12.0,0.,12.0,0.,12.0,0.,12.0
1979-07-27 09:55:16.760 ,3,1,0.,12.0,0.,12.0,0.,12.0,0.,12.0
1979-07-27 09:55:28.760 ,3,1,0.,12.0,0.,12.0,0.,12.0,0.,12.0
1979-07-27 09:55:40.760 ,0,1,0.,12.0,0.,12.0,0.,12.0,0.,12.0
1979-07-27 09:55:52.760 ,0,1,0.,12.0,0.,12.0,0.,12.0,0.,12.0
1979-07-27 09:56:04.760 ,4,1,0.,12.0,0.,12.0,0.,12.0,0.,12.0
1979-07-27 09:56:16.760 ,4,1,0.,12.0,0.,12.0,0.,12.0,0.,12.0
1979-07-27 09:56:28.760 ,7,1,0.,12.0,0.,12.0,0.,12.0,0.,12.0
1979-07-27 09:56:40.760 ,7,1,0.,12.0,0.,12.0,0.,12.0,0.,12.0
1979-07-27 09:56:52.760 ,3,1,0.,12.0,0.,12.0,0.,12.0,0.,12.0
1979-07-27 09:57:04.760 ,3,1,0.,12.0,0.,12.0,0.,12.0,0.,12.0
1979-07-27 09:57:16.760 ,0,1,0.,12.0,0.,12.0,0.,12.0,0.,12.0
1979-07-27 09:57:28.760 ,0,1,0.,12.0,0.,12.0,0.,12.0,0.,12.0
1979-07-27 09:57:40.760 ,4,1,0.,12.0,0.,12.0,0.,12.0,0.,12.0
1979-07-27 09:57:52.760 ,4,1,0.,12.0,0.,12.0,0.,12.0,0.,12.0
1979-07-27 09:58:04.760 ,7,1,0.,12.0,0.,12.0,0.,12.0,0.,12.0
1979-07-27 09:58:16.760 ,7,1,0.,12.0,0.,12.0,0.,12.0,0.,12.0
1979-07-27 09:58:28.760 ,3,1,0.,12.0,0.,12.0,0.,12.0,0.,12.0
1979-07-27 09:58:40.760 ,3,1,0.,12.0,0.,12.0,0.,12.0,0.,12.0
1979-07-27 09:58:52.760 ,0,1,0.,12.0,0.,12.0,0.,12.0,0.,12.0
1979-07-27 09:59:04.760 ,0,1,0.,12.0,0.,12.0,0.,12.0,0.,12.0
1979-07-27 09:59:16.760 ,4,1,0.,12.0,0.,12.0,0.,12.0,0.,12.0
1979-07-27 09:59:28.760 ,4,1,0.,12.0,0.,12.0,0.,12.0,0.,12.0
1979-07-27 09:59:40.760 ,7,1,0.,12.0,0.,12.0,0.,12.0,0.,12.0
1979-07-27 09:59:52.760 ,7,1,0.,12.0,0.,12.0,0.,12.0,0.,12.0
1979-07-27 10:00:04.760 ,3,1,0.,12.0,0.,12.0,0.,12.0,0.,12.0
1979-07-27 10:00:16.760 ,3,1,0.,12.0,0.,12.0,0.,12.0,0.,12.0
1979-07-27 10:00:28.770 ,0,1,0.,12.0,0.,12.0,0.,12.0,0.,12.0
1979-07-27 10:00:40.770 ,0,1,0.,12.0,0.,12.0,0.,12.0,0.,12.0
1979-07-27 10:00:52.770 ,4,1,0.,12.0,0.,12.0,0.,12.0,0.,12.0
1979-07-27 10:01:04.770 ,4,1,0.,12.0,0.,12.0,0.,12.0,0.,12.0
1979-07-27 10:01:16.760 ,7,1,0.,12.0,0.,12.0,0.,12.0,0.,12.0
1979-07-27 10:01:28.770 ,7,1,0.,12.0,0.,12.0,0.,12.0,0.,12.0
1979-07-27 10:01:40.760 ,3,1,0.,12.0,0.,12.0,0.,12.0,0.,12.0
1979-07-27 10:01:52.770 ,3,1,0.,12.0,0.,12.0,0.,12.0,0.,12.0
1979-07-27 10:02:04.760 ,0,1,0.,12.0,0.,12.0,0.,12.0,0.,12.0
1979-07-27 10:02:16.770 ,0,1,0.,12.0,0.,12.0,0.,12.0,0.,12.0
1979-07-27 10:02:28.760 ,4,1,0.,12.0,0.,12.0,0.,12.0,0.,12.0
1979-07-27 10:02:40.770 ,4,1,0.,12.0,0.,12.0,0.,12.0,0.,12.0
1979-07-27 10:02:52.760 ,7,1,0.,12.0,0.,12.0,0.,12.0,0.,12.0
1979-07-27 10:03:04.770 ,7,1,0.,12.0,0.,12.0,0.,12.0,0.,12.0
1979-07-27 10:03:16.760 ,3,1,0.,12.0,0.,12.0,0.,12.0,0.,12.0
1979-07-27 10:03:28.770 ,3,1,0.,12.0,0.,12.0,0.,12.0,0.,12.0
1979-07-27 10:03:40.760 ,0,1,0.,12.0,0.,12.0,0.,12.0,0.,12.0
1979-07-27 10:03:52.770 ,0,1,0.,12.0,0.,12.0,0.,12.0,0.,12.0
1979-07-27 10:04:04.760 ,4,1,0.,12.0,0.,12.0,0.,12.0,0.,12.0
1979-07-27 10:04:16.770 ,4,1,0.,12.0,0.,12.0,0.,12.0,0.,12.0
1979-07-27 10:04:28.770 ,7,1,0.,12.0,0.,12.0,0.,12.0,0.,12.0
1979-07-27 10:04:40.770 ,7,1,0.,12.0,0.,12.0,0.,12.0,0.,12.0
1979-07-27 10:04:52.770 ,3,1,0.,12.0,0.,12.0,0.,12.0,0.,12.0
1979-07-27 10:05:04.770 ,3,1,0.,12.0,0.,12.0,0.,12.0,0.,12.0
1979-07-27 10:05:16.770 ,0,1,0.,12.0,0.,12.0,0.,12.0,0.,12.0
1979-07-27 10:05:28.770 ,0,1,0.,12.0,0.,12.0,0.,12.0,0.,12.0
1979-07-27 10:05:40.770 ,0,0,0.,12.0,0.,12.0,0.,12.0,0.,12.0
1979-07-27 10:05:52.770 ,0,0,0.,12.0,0.,12.0,0.,12.0,0.,12.0
1979-07-27 10:06:04.770 ,0,0,0.,12.0,0.,12.0,0.,12.0,0.,12.0
1979-07-27 10:06:16.770 ,0,0,0.,12.0,0.,12.0,0.,12.0,0.,12.0
1979-07-27 10:06:28.770 ,5,0,0.,12.0,0.,12.0,0.,12.0,0.,12.0
1979-07-27 10:06:40.770 ,5,0,0.,12.0,0.,12.0,0.,12.0,0.,12.0
1979-07-27 10:06:52.770 ,5,0,0.,12.0,0.,12.0,0.,12.0,0.,12.0
1979-07-27 10:07:04.770 ,5,0,0.,12.0,0.,12.0,0.,12.0,0.,12.0
1979-07-27 10:07:16.770 ,4,0,0.,12.0,0.,12.0,0.,12.0,0.,12.0
1979-07-27 10:07:28.770 ,4,0,0.,12.0,0.,12.0,0.,12.0,0.,12.0
1979-07-27 10:07:40.770 ,4,0,0.,12.0,0.,12.0,0.,12.0,0.,12.0
1979-07-27 10:07:52.770 ,4,0,0.,12.0,0.,12.0,0.,12.0,0.,12.0
1979-07-27 10:08:04.770 ,3,0,0.,12.0,0.,12.0,0.,12.0,0.,12.0
1979-07-27 10:08:16.770 ,3,0,0.,12.0,0.,12.0,0.,12.0,0.,12.0
1979-07-27 10:08:28.770 ,3,0,0.,12.0,0.,12.0,0.,12.0,0.,12.0
1979-07-27 10:08:40.770 ,3,0,0.,12.0,0.,12.0,0.,12.0,0.,12.0
1979-07-27 10:08:52.770 ,2,0,0.,12.0,0.,12.0,0.,12.0,0.,12.0
1979-07-27 10:09:04.770 ,2,0,0.,12.0,0.,12.0,0.,12.0,0.,12.0
1979-07-27 10:09:16.770 ,2,0,0.,12.0,0.,12.0,0.,12.0,0.,12.0
1979-07-27 10:09:28.770 ,2,0,0.,12.0,0.,12.0,0.,12.0,0.,12.0
1979-07-27 10:09:40.770 ,1,0,0.,12.0,0.,12.0,0.,12.0,0.,12.0
1979-07-27 10:09:52.770 ,1,0,0.,12.0,0.,12.0,0.,12.0,0.,12.0
1979-07-27 10:10:04.770 ,1,0,0.,12.0,0.,12.0,0.,12.0,0.,12.0
1979-07-27 10:10:16.770 ,1,0,0.,12.0,0.,12.0,0.,12.0,0.,12.0
1979-07-27 10:10:28.770 ,0,0,0.,12.0,0.,12.0,0.,12.0,0.,12.0
1979-07-27 10:10:40.770 ,0,0,0.,12.0,0.,12.0,0.,12.0,0.,12.0
1979-07-27 10:10:52.770 ,0,0,0.,12.0,0.,12.0,0.,12.0,0.,12.0
1979-07-27 10:11:04.770 ,0,0,0.,12.0,0.,12.0,0.,12.0,0.,12.0
1979-07-27 10:11:16.770 ,0,0,0.,12.0,0.,12.0,0.,12.0,0.,12.0
1979-07-27 10:11:28.770 ,0,0,0.,12.0,0.,12.0,0.,12.0,0.,12.0
1979-07-27 10:11:40.770 ,0,0,0.,12.0,0.,12.0,0.,12.0,0.,12.0
1979-07-27 10:11:52.770 ,0,0,0.,12.0,0.,12.0,0.,12.0,0.,12.0
1979-07-27 10:12:04.760 ,1,0,0.,12.0,0.,12.0,0.,12.0,0.,12.0
1979-07-27 10:12:16.760 ,1,0,0.,12.0,0.,12.0,0.,12.0,0.,12.0
1979-07-27 10:12:28.760 ,1,0,0.,12.0,0.,12.0,0.,12.0,0.,12.0
1979-07-27 10:12:40.760 ,1,0,0.,12.0,0.,12.0,0.,12.0,0.,12.0
1979-07-27 10:12:52.760 ,2,0,0.,12.0,0.,12.0,0.,12.0,0.,12.0
1979-07-27 10:13:04.760 ,2,0,0.,12.0,0.,12.0,0.,12.0,0.,12.0
1979-07-27 10:13:16.760 ,2,0,0.,12.0,0.,12.0,0.,12.0,0.,12.0
1979-07-27 10:13:28.760 ,2,0,0.,12.0,0.,12.0,0.,12.0,0.,12.0
1979-07-27 10:13:40.760 ,3,0,0.,12.0,0.,12.0,0.,12.0,0.,12.0
1979-07-27 10:13:52.760 ,3,0,0.,12.0,0.,12.0,0.,12.0,0.,12.0
1979-07-27 10:14:04.760 ,3,0,0.,12.0,0.,12.0,0.,12.0,0.,12.0
1979-07-27 10:14:16.760 ,3,0,0.,12.0,0.,12.0,0.,12.0,0.,12.0
1979-07-27 10:14:28.760 ,4,0,0.,12.0,0.,12.0,0.,12.0,0.,12.0
1979-07-27 10:14:40.760 ,4,0,0.,12.0,0.,12.0,0.,12.0,0.,12.0
1979-07-27 10:14:52.760 ,4,0,0.,12.0,0.,12.0,0.,12.0,0.,12.0
1979-07-27 10:15:04.760 ,4,0,0.,12.0,0.,12.0,0.,12.0,0.,12.0
1979-07-27 10:15:16.760 ,5,0,0.,12.0,0.,12.0,0.,12.0,0.,12.0
1979-07-27 10:15:28.760 ,5,0,0.,12.0,0.,12.0,0.,12.0,0.,12.0
1979-07-27 10:15:40.760 ,5,0,0.,12.0,0.,12.0,0.,12.0,0.,12.0
1979-07-27 10:15:52.760 ,5,0,0.,12.0,0.,12.0,0.,12.0,0.,12.0
1979-07-27 10:16:04.760 ,6,0,0.,12.0,0.,12.0,0.,12.0,0.,12.0
1979-07-27 10:16:16.760 ,6,0,0.,12.0,0.,12.0,0.,12.0,0.,12.0
1979-07-27 10:16:28.760 ,6,0,0.,12.0,0.,12.0,0.,12.0,0.,12.0
1979-07-27 10:16:40.760 ,6,0,0.,12.0,0.,12.0,0.,12.0,0.,12.0
1979-07-27 10:16:52.760 ,7,0,0.,12.0,0.,12.0,0.,12.0,0.,12.0
1979-07-27 10:17:04.760 ,7,0,0.,12.0,0.,12.0,0.,12.0,0.,12.0
1979-07-27 10:17:16.760 ,7,0,0.,12.0,0.,12.0,0.,12.0,0.,12.0
1979-07-27 10:17:28.760 ,7,0,0.,12.0,0.,12.0,0.,12.0,0.,12.0